Location: Newark
(48.4472°N, 1.4892°E)
Time: 18:33:14
(UTC+00:00)

Transit 4A - Pass Details

Date: 27 November 2019
Orbit: 870 x 975 km, 66.8° (Epoch: 08 December)

Event Time Altitude Azimuth Distance (km) Brightness Sun altitude
Exits shadow 04:51:09 52° 303° (WNW) 1,081 7.9 -23.8°
Maximum altitude 04:52:31 72° 239° (WSW) 922 7.6 -23.6°
Drops below altitude 10° 04:58:17 10° 156° (SSE) 2,511 10.5 -22.6°
Sets 05:00:44 0° 155° (SSE) 3,443 11.3 -22.2°
